Weather in Onnes

Russia / Sakha (Yakutia) Republic     60°27′40″N   131°05′59″E
temp.,
°C
wind,
m/s
gust,
m/s
humid.,
%
clouds,
%
prec.,
mm/h
press.,
hPa
HPBL,
m
13 april, tue
tue1300:00−14nw119885 0.1 10219
03:00−19nw1110092 0.1 10219
06:00−16w119997 0.1 102128
09:00−8wnw1188100 0.2 1020368
12:00−4sse0077100 0.1 1018941
15:00−3sw1174100 0.4 1016898
18:00−4sw0183100 0.4 1015111
21:00−11se009792 0.8 101510
14 april, wed
wed1400:00−17ssw0010064 0.0 10159
03:00−20n0010072 0.0 10159
06:00−20ene0010087 0.0 101414
09:00−7e118533 0.0 1012255
12:00−4e1176100 0.1 1010971
15:00−3ne016399 0.3 10081165
18:00−4ssw007866 0.1 100810
21:00−14w109281 0.1 10099
15 april, thu
thu1500:00−16wsw119749 0.0 10089
03:00−18wsw119891 0.0 10079
06:00−14sw119392 0.0 100629
09:00−6ssw118027 0.0 1005270
12:00−2wsw2375100 0.1 10041085
15:00−1w1271100 0.4 1005900
18:00−2sw1187100 0.4 100625
21:00−7wsw0098100 0.6 100810
16 april, fri
fri1600:00−11w119981 0.3 100910
03:00
06:00−10s1210097 0.0 101170
09:00−3s248263 0.0 1011321
12:00+1ssw3581100 0.0 1010945
15:00+1w467689 0.5 10101157
18:000ssw25785 0.1 1010146
21:00−7sse239414 0.1 101041
17 april, sat
sat1700:00−7sse2493100 0.0 100770
03:00−6sse21090100 0.0 1006219
06:00−3s51570100 0.0 1001805
09:000s51379100 0.2 999983
12:00+2s6127782 0.0 997977
15:00+3s51182100 0.2 996955
18:00+1ssw3894100 1.5 995601
21:00−2sw1397100 8.5 997102